Location: ?ejeti?ky
(50.4060°N, 14.9016°E)
Time: 21:49:58
(UTC+00:00)

STARLINK-1364 - Pass Details

Date: 06 October 2020
Orbit: 548 x 551 km, 53.0° (Epoch: 23 October)

Event Time Altitude Azimuth Distance (km) Brightness Sun altitude
Exits shadow 02:59:29 55° 311° (NW) 666 3.8 -21.2°
Maximum altitude 03:00:16 73° 14° (NNE) 579 3.7 -21.1°
Drops below altitude 10° 03:04:25 10° 100° (E) 1,826 7.2 -20.4°
Sets 03:06:39 0° 102° (ESE) 2,719 8.2 -20.1°
